Content
SEND FEEDBACK

Daily
Averages
Monthly
Summary
United States of America

CAMP QUEZON, GUAM


Home > North America > United States > Guam
Elevation: 82 meters     Latitude: 13 28N     Longitude: 144 48E

WEATHER
 
SELECT A DAY
Number of Records: 208,919;   Date Range: 1/1/95 - 7/23/14
 
SHARE

PRINT THIS DATA

[ ← Previous Day ]
WEATHER ALMANAC - 29 MARCH, 2013
[ Next Day → ]
[ °F ]   °C
Weather ElementAverageHighLow
Temperature28.4 °C31.1 °C (3:54 pm)26 °C (5:03 am)
Dewpoint22.4 °C23.3 °C (4:54 am)20 °C (9:47 pm)
Humidity69.8 %83 % (5:03 am)55 % (3:54 pm)
Barometer1012.2 hPa1014.2 hPa (9:34 pm)1010.5 hPa (3:54 am)
Wind Speed21.1 km/h31.5 km/h (9:34 pm)
Wind Gust40.7 km/h (11:54 am)
Weather ElementAverage
Visibility15.8 km
Wind DirectionENE (77.3 °)

Weather ElementTotal
Precipitation1.52 mm
Cooling Degree Days10.2 (Base 18.3)
Growing Degree Days18.6 (Base 10)
Averaged from 30 records on 29 March, 2013
WEATHER CONDITIONS BREAKOUT
WIND DIRECTION BREAKOUT
WEATHER BY HOUR - 29 MARCH, 2013
[ °F ]   °C
Local TimeTemperatureDewpointHumidityBarometerVisibilityWind DirectionWind SpeedGust SpeedPrecipitationEventsConditions
1:21 AM28 °C22 °C70 %1012.5 hPa16.1 kmEast (80°)18.5 km/hMostly Cloudy
1:38 AM28 °C23 °C74 %1012.5 hPa16.1 kmENE (70°)22.2 km/hMostly Cloudy
1:54 AM27.8 °C22.2 °C71 %1011.2 hPa16.1 kmEast (80°)16.7 km/hMostly Cloudy
2:54 AM27.2 °C22.2 °C74 %1010.8 hPa16.1 kmEast (80°)14.8 km/hScattered Clouds
3:54 AM27.2 °C22.8 °C77 %1010.5 hPa16.1 kmEast (80°)13 km/hPartly Cloudy
4:41 AM27 °C23 °C79 %1011.5 hPa9.7 kmEast (80°)9.3 km/h0.51 mmRainLight Rain
4:54 AM26.7 °C23.3 °C81 %1010.8 hPa16.1 kmEast (80°)27.8 km/h37 km/h0.51 mmMostly Cloudy
5:03 AM26 °C23 °C83 %1011.9 hPa16.1 kmEast (80°)25.9 km/h37 km/hScattered Clouds
5:54 AM26.7 °C22.2 °C76 %1011.2 hPa16.1 kmENE (70°)20.4 km/hScattered Clouds
6:54 AM26.7 °C22.2 °C76 %1011.9 hPa16.1 kmENE (60°)14.8 km/hMostly Cloudy
7:54 AM28.3 °C22.8 °C72 %1012.5 hPa16.1 kmEast (80°)18.5 km/h0.25 mmScattered Clouds
8:54 AM28.9 °C22.8 °C69 %1013.2 hPa16.1 kmEast (90°)24.1 km/hMostly Cloudy
9:54 AM29.4 °C22.2 °C65 %1013.2 hPa16.1 kmEast (80°)22.2 km/hScattered Clouds
10:54 AM30.6 °C22.2 °C61 %1012.9 hPa16.1 kmENE (60°)29.6 km/h38.9 km/hMostly Cloudy
11:54 AM30 °C22.8 °C65 %1012.2 hPa16.1 kmEast (80°)24.1 km/h40.7 km/h0 mmOvercast
12:28 PM31 °C22 °C58 %1012.5 hPa16.1 kmEast (80°)27.8 km/hPartly Cloudy
12:54 PM30.6 °C23.3 °C65 %1011.5 hPa16.1 kmEast (80°)29.6 km/h40.7 km/hMostly Cloudy
1:54 PM30.6 °C22.2 °C61 %1011.2 hPa16.1 kmEast (80°)25.9 km/h40.7 km/hMostly Cloudy
2:54 PM30.6 °C22.2 °C61 %1010.5 hPa16.1 kmEast (90°)20.4 km/h35.2 km/hOvercast
3:54 PM31.1 °C21.1 °C55 %1010.5 hPa16.1 kmEast (80°)24.1 km/hPartly Cloudy
4:54 PM30 °C21.7 °C61 %1010.8 hPa16.1 kmENE (70°)25.9 km/h37 km/hMostly Cloudy
5:54 PM29.4 °C22.2 °C65 %1011.2 hPa16.1 kmENE (70°)18.5 km/h31.5 km/hScattered Clouds
6:54 PM28.3 °C22.8 °C72 %1011.9 hPa16.1 kmEast (80°)16.7 km/hScattered Clouds
7:54 PM28.3 °C22.8 °C72 %1012.5 hPa16.1 kmENE (70°)14.8 km/hScattered Clouds
8:54 PM28.3 °C22.8 °C72 %1013.2 hPa16.1 kmEast (80°)18.5 km/hPartly Cloudy
9:34 PM28 °C23 °C74 %1014.2 hPa14.5 kmENE (70°)31.5 km/h38.9 km/h0 mmRainLight Rain
9:47 PM27 °C20 °C65 %1014.2 hPa16.1 kmEast (80°)24.1 km/h0 mmOvercast
9:54 PM26.7 °C21.1 °C71 %1013.2 hPa16.1 kmEast (80°)16.7 km/h0.25 mmOvercast
10:54 PM27.8 °C22.8 °C74 %1013.5 hPa16.1 kmEast (80°)20.4 km/h35.2 km/h0 mmRainLight Rain
11:54 PM27.8 °C23.3 °C76 %1013.2 hPa16.1 kmEast (80°)13 km/h0 mmScattered Clouds
Hourly data recorded from PGUM, located 0 kilometers away from Camp Quezon, Guam







STORIES FROM OUR PARTNERS